Location: Miami, Florida
(25.6830°N, 80.1700°W)
Time: 18:36:22
(UTC-04:00)

ISS - Pass Details

Date: 30 June 2018
Orbit: 402 x 408 km, 51.6° (Epoch: 19 July)

Event Time Altitude Azimuth Distance (km) Brightness Sun altitude
Exits shadow 05:16:06 38° 243° (WSW) 636 -3.4 -15.6°
Maximum altitude 05:17:10 66° 312° (NW) 445 -3.8 -15.4°
Drops below altitude 10° 05:20:26 10° 35° (NE) 1,466 0.2 -14.8°
Sets 05:22:32 0° 39° (NE) 2,329 1.6 -14.4°
